Terminal Aerodrome Forecast
Issued by NWS

Home | Current Version | Previous Version | Graphics & Text | Print | Product List | Glossary On
Versions: 1 2 3 4 5 6 7 8 9 10 11 12 13
000
FTUS45 KGGW 130500
TAFSDY
TAF
KSDY 130520Z 1306/1406 VRB05KT P6SM BKN070
     FM131400 31011KT P6SM SCT060
     FM131800 32013KT P6SM BKN045
     FM140300 VRB06KT P6SM BKN060
      AMD LTD TO CLD VIS AND WIND=

USA.gov is the U.S. government's official web portal to all federal, state and local government web resources and services.